Miscellaneous Local Product
Issued by NWS North Platte, NE

Home | Current Version | Previous Version | Text Only | Print | Product List | Glossary On
Versions: 1 2 3 4 5 6 7 8 9 10 11 12 13 14 15 16 17 18 19 20 21 22 23 24 25 26 27 28 29 30 31 32 33 34 35 36 37 38 39 40 41 42 43 44 45 46 47 48 49 50
000
AXUS43 KLBF 270810
MISLBF


WESTERN AND NORTH CENTRAL NEBRASKA HOURLY WEATHER ROUNDUP
NATIONAL WEATHER SERVICE NORTH PLATTE NE
200 AM CST SAT DEC 27 2014

***STATIONS NOT REPORTING VARIABLES SUCH AS SKY/WEATHER OR
PRESSURE ARE PROVIDED BY THE NEBRASKA DEPARTMENT OF
ROADS...RAWS...AND APRS NETWORKS...AND ARE NOT UNDER
NATIONAL WEATHER SERVICE QUALITY CONTROL***

...OBSERVATIONS IN AND NEAR THE EASTERN PANHANDLE OF NEBRASKA...

CITY           SKY/WX    TMP DP  RH WIND       PRES   REMARKS
PINE RIDGE     CLOUDY    17  12  80 W3        30.13S
CHADRON        CLOUDY    18  14  84 W5        30.14S WCI  11
ALLIANCE       CLOUDY    17  15  92 NW3       30.09S
SIDNEY         MOCLDY    10   7  87 W10       30.10S WCI  -4
WHITECLAY        N/A     16  11  80 CALM        N/A
CRESCENT LAKE    N/A     15  12  88 W3          N/A
LISCO            N/A     15  10  83 W7          N/A  WCI   5
BIG SPRINGS      N/A     15  13  90 SW3         N/A
$$

...OBSERVATIONS IN NORTH CENTRAL NEBRASKA...

CITY           SKY/WX    TMP DP  RH WIND       PRES   REMARKS
VALENTINE      FLURRIES  16  12  84 W10       30.14S WCI   4
THEDFORD       LGT SNOW  13  11  91 W7        30.14S WCI   3
AINSWORTH      FLURRIES  16  13  89 NW7       30.12S WCI   6
O`NEILL        LGT SNOW  18  17  95 NW12      30.14S WCI   6
ORD            LGT SNOW  19  15  84 NW14      30.15R FOG     WCI   6
BROKEN BOW     LGT SNOW  19  15  84 NW10      30.13S FOG     WCI   7
BROWNLEE         N/A     14  10  85 W9          N/A  WCI   1
SPRINGVIEW       N/A     16  14  90 W3          N/A
BREWSTER         N/A     20  19  94 NW6         N/A  WCI  13
ROSE             N/A     24  23  96 W5          N/A  WCI  18
SARGENT          N/A     18  16  92 CALM        N/A
COMSTOCK         N/A     24  21  89 NW10        N/A  WCI  14
CHAMBERS         N/A     17  14  86 NE3G12      N/A
EWING            N/A     19  17  93 CALM        N/A
$$

...OBSERVATIONS IN SOUTHWEST NEBRASKA AND FAR NORTHEAST COLORADO...

CITY           SKY/WX    TMP DP  RH WIND       PRES   REMARKS
WRAY           FAIR       8   6  90 W8        30.15F WCI  -5
HOLYOKE        FAIR      14  10  85 W9        30.14S WCI   2
IMPERIAL       PTCLDY    13   9  84 W10       30.15S WCI   0
OGALLALA       CLOUDY    13  11  92 W8        30.14S WCI   1
NORTH PLATTE   PTCLDY     5   3  91 NW6       30.16R WCI  -6
MCCOOK         CLEAR     10   7  87 W10       30.17S WCI  -4
LEXINGTON      CLEAR     11   8  91 W10       30.16R WCI  -3
PAXTON           N/A     15  13  92 CALM        N/A
BRADY            N/A     13  10  85 CALM        N/A
GOTHENBURG       N/A     15  12  88 W3          N/A
CALLAWAY         N/A     16  14  91 NW9         N/A  WCI   5
$$

...NORTH PLATTE AREA...

CITY           SKY/WX    TMP DP  RH WIND       PRES   REMARKS
AIRPORT        PTCLDY     5   3  91 NW6       30.16R WCI  -6
DOWNTOWN         N/A     14  11  90 NW3         N/A
$$

...SOME WEATHER OBSERVATIONS FROM AROUND THE REGION...

CITY           SKY/WX    TMP DP  RH WIND       PRES   REMARKS
DENVER         PTCLDY     8   5  87 SW8       30.08S WCI  -4
LARAMIE        LGT SNOW  -5  -7  91 CALM      29.99S FOG
CHEYENNE       PTCLDY     6   0  76 W12       30.01S WCI  -9
SCOTTSBLUFF    CLOUDY    13  11  92 NW5       30.12S WCI   5
RAPID CITY     CLEAR      5   2  87 NW5       30.12F WCI  -4
PIERRE         PTCLDY     6   1  80 CALM      30.16F
WINNER         CLOUDY    17  12  80 W7        30.16S WCI   8
SIOUX FALLS    LGT SNOW  21  18  88 N15       30.08S FOG     WCI   8
OMAHA          CLOUDY    28  25  88 NW14      30.07R WCI  17
GRAND ISLAND   CLOUDY    18  14  84 NW10      30.15R WCI   6
KANSAS CITY    CLOUDY    35  33  92 W17G23    30.07R WCI  25
WICHITA        CLOUDY    32  24  72 NW17      30.15F WCI  21
HAYS           MOCLDY    19   9  63 NW15      30.17F WCI   5
LIBERAL        PTCLDY    19  14  79 NW13      30.18F WCI   7
GOODLAND       CLEAR      7   5  91 W10       30.13F WCI  -8
$$



USA.gov is the U.S. government's official web portal to all federal, state and local government web resources and services.